Location: Milano
(45.4670°N, 9.2000°E)
Time: 20:24:51
(UTC+02:00)

ISS - Pass Details

Date: 23 May 2021
Orbit: 417 x 422 km, 51.6° (Epoch: 14 June)

Event Time Altitude Azimuth Distance (km) Brightness Sun altitude
Rises 23:46:14 0° 298° (WNW) 2,369 0.9 -20.4°
Reaches altitude 10° 23:48:23 10° 305° (NW) 1,504 -0.1 -20.6°
Maximum altitude 23:51:40 48° 21° (NNE) 556 -2.9 -20.8°
Enters shadow 23:52:14 43° 55° (NE) 605 -2.9 -20.8°
